Wind_Speed
20 20 19 19 18 18 18 18 18 18 19 19 20 20 21 22 23 24 24 25 26 27 28 28 29 29 30 31 31 32 32 32 32 32 32 32 32 32 31 31 31 31 31
23 22 22 21 21 21 21 21 21 21 22 22 23 23 24 25 25 26 27 27 28 29 30 30 31 31 32 33 33 33 33 33 33 33 33 33 33 33 33 33 32 32 32
25 25 24 24 24 24 24 24 24 24 25 25 25 26 26 27 28 28 29 30 30 31 32 32 33 33 34 34 34 34 35 35 35 35 35 35 35 35 34 34 33 33 32
28 27 27 27 27 27 27 27 27 27 28 28 28 28 29 30 30 31 32 32 33 33 34 34 35 35 35 35 35 36 36 36 36 36 36 36 36 36 35 34 34 33 33
31 30 30 30 30 29 30 30 31 31 31 31 31 31 32 32 33 33 34 35 35 36 36 36 37 37 37 38 38 37 37 37 37 37 38 37 37 37 36 35 34 34 34
34 34 33 34 34 33 33 33 33 34 34 34 34 34 35 35 35 36 37 37 38 38 38 38 39 39 40 40 40 39 38 38 38 38 38 38 38 37 36 36 35 35 35
37 37 36 37 37 37 37 38 37 37 37 37 37 37 37 38 38 38 39 39 40 40 41 40 41 41 41 41 41 40 40 40 40 39 39 38 38 37 36 36 36 36 36
39 40 40 40 40 40 40 41 41 40 40 41 41 41 40 40 40 41 41 41 42 42 42 43 43 44 44 43 42 41 41 41 41 40 39 39 38 37 37 36 36 36 36
42 43 43 43 43 43 43 44 44 44 43 43 44 44 44 43 43 42 42 42 43 43 44 45 45 45 45 44 43 43 43 42 42 41 40 39 38 38 37 36 36 36 36
44 45 45 46 47 47 47 47 47 46 46 46 46 46 47 47 46 45 44 44 45 45 45 45 45 46 45 45 44 44 44 43 42 41 41 39 38 37 37 37 37 36 36
46 46 47 48 49 50 49 49 49 49 49 48 48 48 49 49 49 50 48 47 47 46 46 46 46 46 45 45 44 44 44 43 42 42 41 39 38 38 38 37 37 36 36
48 49 49 50 51 51 51 50 50 50 50 51 51 51 51 50 50 50 50 49 48 48 47 47 47 46 45 44 44 44 44 43 43 42 40 39 38 38 37 37 37 36 36
51 51 52 52 52 52 52 52 52 52 52 52 52 52 52 51 51 51 51 50 50 49 48 47 46 46 45 44 44 44 44 43 43 41 40 38 38 37 37 36 36 36 36
53 53 54 53 53 53 53 53 54 54 54 53 53 52 52 52 52 52 52 51 50 49 47 46 45 45 45 45 45 44 44 43 42 41 39 38 38 37 37 36 36 36 36
54 54 54 54 54 53 53 53 53 53 53 52 53 53 52 52 51 51 50 50 49 48 46 45 45 45 45 45 45 45 44 43 42 41 40 39 38 37 36 36 35 35 35
52 53 52 52 52 53 53 52 52 52 51 51 51 51 51 51 51 49 49 48 48 47 45 45 45 45 45 45 45 44 42 42 41 40 39 38 37 37 36 36 36 36 36
51 51 51 51 51 50 51 51 52 51 51 50 50 50 51 50 49 49 48 48 48 47 46 46 45 45 44 44 44 43 42 41 40 39 38 37 37 37 36 36 36 36 36
50 49 49 49 49 49 49 50 50 50 50 50 50 50 49 49 48 48 48 47 47 47 46 46 45 44 43 42 42 41 40 39 38 38 37 37 37 37 37 37 37 36 36
48 48 48 48 48 48 48 48 48 48 48 48 48 48 48 47 47 46 46 46 46 46 45 44 43 42 42 41 40 40 39 38 38 37 37 37 37 37 37 37 37 37 37
47 46 47 46 47 47 46 46 45 45 45 46 46 46 46 46 46 46 45 45 44 44 43 42 41 41 41 40 39 38 38 37 37 37 37 37 37 37 37 37 38 38 38
45 45 45 45 45 45 45 44 44 44 44 44 44 45 44 44 44 44 44 43 43 42 41 41 40 40 39 38 38 38 37 37 37 37 37 37 37 37 38 38 38 38 39
43 44 44 44 44 44 44 44 44 44 44 43 43 43 43 43 43 42 42 42 41 40 40 39 39 39 38 38 38 37 37 36 36 37 37 37 37 38 39 39 39 39 39
42 43 43 43 43 43 43 43 42 42 42 42 42 42 41 41 41 41 40 40 40 39 39 39 39 38 37 37 37 36 36 36 36 37 37 38 38 39 40 40 40 40 40
41 41 42 42 42 42 42 41 41 41 40 40 40 40 40 39 39 39 39 39 38 38 38 38 37 37 37 36 36 36 36 36 37 37 37 38 39 39 40 40 40 41 41
41 41 41 41 41 41 40 40 39 39 38 38 38 38 38 37 37 37 36 37 37 36 36 36 36 36 36 36 36 36 36 37 37 37 38 38 39 40 40 40 41 41 41
39 40 39 39 39 39 38 38 37 37 37 36 36 36 35 35 35 34 35 35 35 35 35 35 35 35 35 35 36 36 36 37 37 38 38 39 40 40 39 40 41 41 42
Wind_Direction
249 252 256 261 265 269 272 276 280 283 287 290 293 297 299 301 303 305 307 308 310 311 312 312 312 313 315 315 315 315 314 313 313 312 311 310 308 306 305 304 303 301 300
253 255 259 263 266 270 274 277 280 283 286 289 292 294 296 298 300 302 304 305 307 309 309 310 310 311 312 313 313 313 312 312 311 310 310 308 307 305 304 303 302 300 299
255 258 261 264 267 271 275 278 281 283 285 287 290 292 294 296 297 299 301 302 304 306 306 307 307 308 309 310 311 311 310 310 309 309 308 306 305 304 303 302 300 299 298
257 260 263 266 269 272 275 278 280 282 284 286 288 290 292 294 295 297 298 300 301 303 304 304 304 305 306 307 308 309 308 307 308 307 306 305 304 303 302 300 299 298 297
260 262 265 267 270 273 275 277 279 281 283 285 287 289 291 292 293 295 296 298 299 301 302 302 302 303 304 305 306 306 306 306 306 305 304 303 302 301 300 299 298 297 297
262 264 266 269 271 274 276 277 279 281 283 284 286 287 289 291 292 293 294 296 297 298 299 300 300 300 301 303 303 304 304 304 303 303 303 302 301 300 299 298 297 297 297
263 266 268 270 272 275 276 278 279 280 281 283 284 286 288 289 290 291 293 294 295 297 297 298 298 299 300 301 302 302 302 302 302 301 301 300 299 298 297 297 297 297 297
265 266 268 270 273 275 276 278 279 279 281 282 284 286 286 287 288 290 291 292 293 294 295 296 298 298 298 299 300 300 301 301 301 300 299 298 297 296 296 295 296 296 297
265 266 268 271 273 274 275 277 277 278 279 281 284 285 287 287 287 288 290 291 292 293 293 294 296 297 297 298 298 298 299 300 299 299 298 296 296 295 295 295 295 295 295
265 266 268 270 272 273 274 275 276 276 279 280 281 283 285 287 288 288 289 290 291 291 292 292 294 295 295 296 297 298 298 298 297 297 296 295 295 294 293 293 294 295 295
265 266 267 268 270 272 273 274 274 276 278 279 280 281 283 285 286 288 288 289 290 290 291 292 293 293 293 294 295 296 296 296 296 296 295 294 294 294 293 293 294 294 294
264 266 268 269 270 272 272 273 274 276 278 278 280 281 282 284 285 286 288 289 288 289 291 292 292 291 291 292 294 294 295 295 296 296 295 294 293 292 292 292 292 292 293
265 267 268 270 270 271 272 273 274 276 278 278 279 279 280 283 284 285 286 287 288 289 290 291 290 289 290 292 292 293 294 295 295 295 293 292 292 292 291 292 291 291 291
266 267 268 270 271 271 271 273 274 274 276 277 278 278 279 281 283 284 285 286 287 288 290 289 288 289 290 291 292 292 293 293 293 293 292 291 291 291 290 291 290 290 290
265 267 269 271 271 272 273 273 273 274 276 277 278 279 280 281 282 283 284 286 287 287 287 288 288 289 290 291 291 291 291 291 292 291 290 290 290 290 290 290 291 291 290
265 266 268 270 271 272 273 274 274 275 276 278 279 280 281 282 283 284 285 286 287 288 287 287 287 288 289 290 291 291 291 290 290 290 290 289 290 289 289 290 291 291 290
266 268 269 270 272 274 274 274 275 275 276 277 279 281 281 282 283 284 285 285 286 286 286 287 287 288 289 290 290 290 290 289 288 289 289 289 289 289 290 290 291 290 289
268 269 271 272 273 274 275 275 276 276 277 278 279 280 281 281 282 283 284 284 284 285 285 287 287 288 289 289 289 288 288 288 289 289 289 289 289 290 290 290 291 290 290
269 270 271 272 274 274 275 276 277 278 279 279 279 280 280 281 282 282 282 282 283 284 285 286 286 287 287 287 287 287 288 288 289 289 290 289 289 290 290 290 291 291 290
268 270 272 273 274 275 276 276 277 278 278 278 279 280 279 279 280 280 281 282 282 283 284 285 286 286 287 287 287 287 288 289 289 289 289 290 290 290 290 291 291 290 290
269 271 272 273 274 275 275 276 276 277 277 278 279 279 279 279 279 280 281 281 282 283 284 285 285 286 286 286 287 287 288 288 289 289 290 290 290 290 291 292 291 291 291
269 270 272 273 274 274 274 275 275 276 277 278 279 279 279 279 279 280 280 281 282 283 283 284 285 286 286 286 287 287 288 288 289 290 290 290 290 291 292 292 292 291 291
271 271 272 273 274 274 274 274 275 276 277 278 279 279 279 279 279 279 280 281 281 283 283 284 284 285 286 286 287 288 288 289 289 290 290 291 291 292 292 292 292 291 291
271 272 272 273 273 274 274 275 276 277 277 277 278 278 278 279 279 279 280 280 281 282 283 284 284 285 285 286 287 288 289 290 291 291 291 291 292 293 293 292 292 292 292
271 272 272 272 273 273 274 274 275 276 275 276 277 278 278 279 279 280 280 281 282 282 283 283 284 285 285 286 287 289 290 291 291 292 292 292 293 294 293 293 292 292 293
271 271 271 272 273 273 273 273 274 274 275 276 277 277 278 279 279 280 281 281 282 283 283 284 284 285 285 287 288 289 291 291 292 292 293 294 294 294 294 294 294 294 294
Height
5866 5868 5869 5870 5871 5871 5871 5872 5872 5872 5872 5871 5871 5870 5869 5868 5867 5866 5864 5863 5861 5859 5858 5856 5854 5851 5849 5847 5844 5841 5839 5836 5833 5830 5827 5825 5822 5819 5817 5814 5812 5810 5807
5862 5863 5864 5865 5866 5867 5867 5867 5868 5868 5867 5867 5866 5866 5865 5864 5863 5861 5860 5858 5856 5854 5852 5851 5848 5846 5844 5841 5838 5836 5833 5830 5827 5824 5821 5819 5816 5813 5811 5808 5806 5803 5801
5857 5858 5859 5860 5861 5862 5862 5863 5863 5863 5863 5862 5862 5861 5860 5859 5857 5856 5854 5853 5851 5849 5847 5845 5843 5841 5838 5835 5833 5830 5827 5824 5821 5818 5815 5812 5809 5807 5804 5801 5799 5796 5794
5852 5853 5854 5855 5856 5857 5857 5857 5857 5857 5857 5857 5856 5855 5854 5853 5852 5850 5848 5847 5845 5843 5841 5839 5837 5834 5832 5829 5826 5824 5820 5817 5814 5811 5808 5805 5802 5800 5797 5794 5792 5789 5787
5846 5847 5849 5849 5850 5851 5851 5851 5851 5851 5851 5851 5850 5849 5848 5847 5846 5844 5842 5840 5838 5837 5835 5832 5830 5828 5825 5822 5820 5817 5814 5810 5807 5804 5801 5798 5795 5792 5789 5787 5784 5782 5780
5840 5841 5842 5843 5844 5845 5845 5845 5845 5844 5844 5844 5843 5843 5842 5840 5839 5837 5835 5833 5831 5829 5827 5825 5823 5820 5817 5815 5812 5809 5806 5803 5800 5796 5793 5790 5787 5784 5781 5779 5777 5774 5772
5833 5834 5835 5836 5837 5837 5838 5838 5838 5837 5837 5836 5836 5835 5835 5833 5832 5830 5828 5826 5823 5821 5819 5817 5815 5812 5810 5807 5803 5800 5797 5795 5792 5789 5785 5782 5779 5776 5773 5771 5769 5766 5764
5825 5826 5827 5828 5829 5829 5830 5830 5830 5829 5829 5828 5827 5827 5827 5827 5824 5822 5820 5818 5816 5813 5810 5808 5805 5803 5801 5798 5795 5792 5789 5786 5783 5780 5777 5774 5771 5768 5765 5763 5760 5758 5756
5817 5818 5819 5820 5821 5821 5821 5821 5821 5821 5820 5820 5818 5817 5817 5817 5815 5814 5812 5810 5807 5805 5802 5799 5796 5794 5791 5789 5786 5783 5779 5776 5774 5771 5768 5765 5762 5759 5757 5754 5752 5750 5747
5808 5809 5810 5811 5812 5812 5812 5812 5812 5812 5811 5810 5809 5808 5807 5806 5804 5804 5803 5800 5798 5795 5793 5790 5787 5785 5782 5779 5776 5773 5770 5767 5764 5761 5759 5756 5753 5751 5748 5745 5743 5741 5739
5799 5800 5801 5801 5802 5802 5803 5803 5802 5802 5801 5801 5800 5799 5797 5795 5794 5792 5792 5791 5788 5786 5783 5780 5778 5775 5772 5769 5766 5763 5760 5757 5754 5752 5749 5746 5744 5741 5739 5736 5734 5732 5730
5790 5790 5791 5791 5792 5792 5792 5792 5792 5792 5791 5790 5789 5788 5787 5786 5784 5782 5780 5779 5777 5776 5773 5770 5767 5764 5761 5759 5756 5753 5750 5748 5745 5742 5739 5737 5734 5732 5730 5727 5725 5723 5721
5779 5780 5781 5781 5781 5782 5782 5781 5781 5781 5780 5779 5778 5777 5776 5774 5773 5771 5769 5767 5766 5764 5762 5759 5756 5753 5751 5748 5745 5743 5740 5737 5735 5732 5729 5727 5725 5723 5720 5718 5716 5714 5712
5768 5769 5769 5770 5770 5770 5770 5770 5770 5770 5769 5768 5767 5766 5764 5763 5761 5759 5757 5756 5754 5753 5751 5748 5745 5742 5740 5737 5735 5732 5730 5727 5724 5722 5719 5717 5715 5713 5711 5709 5706 5704 5702
5757 5758 5758 5758 5759 5758 5758 5758 5758 5758 5757 5756 5755 5754 5753 5751 5749 5748 5746 5744 5742 5741 5740 5737 5734 5731 5729 5726 5724 5721 5718 5716 5713 5711 5709 5707 5705 5703 5701 5699 5696 5695 5693
5745 5746 5746 5747 5747 5747 5747 5747 5747 5746 5745 5745 5743 5742 5741 5740 5738 5736 5734 5732 5730 5728 5727 5726 5723 5721 5718 5715 5713 5710 5708 5705 5703 5700 5698 5697 5695 5693 5691 5688 5686 5684 5682
5733 5734 5734 5735 5735 5735 5735 5735 5734 5734 5733 5732 5731 5730 5729 5727 5726 5724 5722 5721 5719 5717 5715 5714 5712 5709 5707 5704 5702 5699 5697 5695 5692 5690 5688 5686 5684 5682 5680 5678 5676 5674 5672
5722 5722 5723 5723 5723 5723 5723 5722 5722 5721 5720 5720 5719 5718 5717 5715 5714 5712 5710 5709 5707 5705 5703 5702 5700 5698 5695 5693 5691 5689 5686 5684 5682 5680 5678 5676 5674 5672 5670 5668 5665 5663 5661
5711 5711 5711 5711 5711 5711 5711 5710 5710 5709 5708 5707 5706 5705 5704 5703 5702 5700 5698 5697 5695 5693 5692 5690 5688 5686 5684 5682 5680 5678 5676 5674 5672 5670 5668 5666 5664 5661 5659 5657 5655 5652 5650
5699 5699 5700 5700 5700 5699 5699 5698 5698 5697 5696 5695 5694 5693 5692 5691 5690 5688 5687 5685 5684 5682 5680 5679 5677 5676 5674 5672 5670 5668 5666 5664 5662 5660 5657 5655 5653 5651 5649 5646 5644 5641 5639
5688 5688 5688 5688 5688 5687 5687 5686 5686 5685 5684 5683 5682 5681 5680 5679 5678 5677 5675 5674 5672 5671 5669 5668 5666 5665 5663 5661 5659 5657 5656 5654 5651 5649 5647 5645 5643 5640 5638 5635 5632 5630 5627
5676 5677 5677 5676 5676 5676 5675 5675 5674 5674 5673 5672 5671 5670 5668 5667 5666 5665 5664 5663 5661 5660 5659 5657 5656 5654 5653 5651 5649 5647 5646 5644 5641 5639 5637 5634 5632 5629 5626 5623 5621 5618 5615
5665 5665 5665 5665 5665 5664 5664 5663 5663 5662 5661 5660 5659 5658 5657 5656 5655 5654 5653 5652 5651 5649 5648 5647 5646 5644 5642 5641 5639 5637 5635 5633 5631 5628 5626 5624 5621 5618 5615 5611 5608 5606 5603
5654 5654 5654 5654 5653 5653 5652 5652 5651 5651 5650 5649 5648 5647 5646 5645 5644 5643 5642 5641 5640 5639 5638 5636 5635 5633 5632 5630 5629 5627 5625 5622 5620 5618 5615 5613 5610 5607 5603 5600 5596 5593 5590
5643 5643 5643 5643 5642 5642 5641 5641 5640 5640 5639 5638 5638 5637 5636 5635 5634 5633 5632 5631 5630 5628 5627 5626 5625 5623 5621 5620 5618 5616 5614 5612 5609 5607 5604 5602 5599 5595 5592 5588 5584 5581 5578
5633 5633 5632 5632 5632 5631 5630 5630 5630 5629 5629 5628 5627 5626 5626 5625 5624 5623 5622 5621 5620 5619 5617 5616 5615 5613 5611 5610 5608 5606 5604 5601 5599 5596 5593 5590 5587 5584 5581 5576 5572 5568 5565